[[{"header":{"parameterUnit":"m.s-1","parameterCategory":1,"la1":30.2992,"la2":30.254,"lo1":-89.0895,"lo2":-89.0443,"dy":0.0025,"dx":0.0025,"nx":19,"ny":19,"refTime":"2026-04-11T03:00:00:Z","depth":0,"parameterNumber":2,"parameterNumberName":"U-component_of_WINDS"},"data":[0,0,0,-1.4482,-1.4481,-1.4422,-1.4421,-1.4359,-1.4358,0,0,0,0,0,0,0,0,0,0,0,-1.4506,-1.4506,-1.4482,-1.4481,-1.4422,-1.4421,-1.4359,-1.4358,0,0,0,0,0,0,0,0,0,0,0,-1.4506,-1.4506,-1.4506,-1.4481,-1.4422,-1.4421,-1.4359,-1.4399,0,0,0,0,0,0,0,0,0,0,-1.4454,-1.4482,-1.4506,-1.4506,-1.448,-1.4422,-1.4421,-1.4401,-1.4397,-1.4391,0,-1.4386,0,-1.4372,-1.4355,-1.4355,0,0,0,-1.4476,-1.4486,-1.4464,-1.4505,-1.448,-1.4422,-1.4447,-1.4398,-1.4394,-1.4385,-1.4385,-1.4383,-1.4371,-1.4355,-1.4354,-1.4338,-1.4338,0,0,-1.4479,-1.4499,-1.4468,-1.4462,-1.4471,-1.4449,-1.4445,-1.4395,-1.4397,-1.4385,-1.4381,-1.437,-1.4354,-1.4354,-1.4337,-1.4338,0,0,0,-1.4492,-1.4501,-1.448,-1.4465,-1.4453,-1.4447,-1.4443,-1.4399,-1.4391,-1.438,-1.4369,-1.4354,-1.4353,-1.4337,-1.4338,-1.4365,0,0,0,-1.4493,-1.4508,-1.4482,-1.4494,-1.4454,-1.4425,-1.4448,-1.4394,-1.4388,-1.4369,-1.4354,-1.4353,-1.4337,-1.4337,-1.4364,-1.4374,0,0,0,-1.4508,-1.451,-1.4504,-1.4495,-1.447,-1.4425,-1.4414,-1.4392,-1.4381,-1.4355,-1.4353,-1.4337,-1.4337,-1.4363,-1.4372,-1.4376,0,0,0,-1.4528,-1.4527,-1.4505,-1.45,-1.4471,-1.4443,-1.4414,-1.4392,-1.4372,-1.4354,-1.4337,-1.4338,-1.4362,-1.4371,-1.4375,-1.4383,-1.4388,0,0,-1.4538,-1.4529,-1.4525,-1.4503,-1.4484,-1.445,-1.4436,-1.4399,-1.4378,-1.4353,-1.4352,-1.4364,-1.4372,-1.4376,-1.4411,-1.4415,0,0,0,-1.4535,-1.4532,-1.4523,-1.4506,-1.4479,-1.4457,-1.4421,-1.4408,-1.4386,-1.4369,-1.4366,-1.437,-1.4372,-1.4375,-1.4378,-1.4379,-1.434,-1.434,-1.434,-1.4575,-1.4551,-1.4543,-1.4512,-1.4497,-1.4462,-1.4447,-1.4424,-1.4402,-1.4403,-1.4394,-1.4419,-1.4423,-1.4425,-1.4427,-1.4397,-1.4397,-1.4397,-1.4397,-1.4587,-1.458,-1.4555,-1.4538,-1.4514,-1.45,-1.4468,-1.4454,-1.4438,-1.4422,-1.4422,-1.4406,-1.4431,-1.4431,-1.4399,-1.4399,-1.4398,-1.4398,-1.4398,-1.461,-1.4603,-1.4589,-1.4565,-1.455,-1.452,-1.4507,-1.4485,-1.4463,-1.4464,-1.4454,-1.4454,-1.4451,-1.4461,-1.4461,-1.4461,-1.4461,-1.4461,-1.4462,-1.4639,-1.4623,-1.4615,-1.459,-1.4578,-1.4561,-1.4529,-1.4517,-1.4499,-1.4483,-1.4483,-1.4463,-1.4438,-1.4432,-1.4463,-1.4462,-1.4462,-1.4462,-1.4462,-1.466,-1.4653,-1.464,-1.4629,-1.46,-1.4589,-1.4562,-1.4541,-1.4528,-1.4524,-1.4505,-1.449,-1.4478,-1.4475,-1.447,-1.4509,-1.4509,-1.4509,-1.4509,-1.4679,-1.4673,-1.4657,-1.4641,-1.4623,-1.46,-1.4589,-1.4567,-1.4542,-1.4533,-1.4525,-1.4517,-1.4515,-1.4505,-1.4501,-1.4496,-1.454,-1.454,-1.454,-1.4691,-1.4683,-1.4676,-1.4653,-1.463,-1.4612,-1.4602,-1.4587,-1.4557,-1.4541,-1.4526,-1.4525,-1.4512,-1.4508,-1.449,-1.4484,-1.4475,0,0]},{"header":{"parameterUnit":"m.s-1","parameterCategory":1,"la1":30.2992,"la2":30.254,"lo1":-89.0895,"lo2":-89.0443,"dy":0.0025,"dx":0.0025,"nx":19,"ny":19,"refTime":"2026-04-11T03:00:00:Z","depth":0,"parameterNumber":3,"parameterNumberName":"V-component_of_WINDS"},"data":[0,0,0,3.1144,3.1143,3.1097,3.1097,3.1012,3.1012,0,0,0,0,0,0,0,0,0,0,0,3.1146,3.1145,3.1144,3.1143,3.1097,3.1097,3.1013,3.1012,0,0,0,0,0,0,0,0,0,0,0,3.1146,3.1145,3.1144,3.1142,3.1097,3.1097,3.1013,3.1056,0,0,0,0,0,0,0,0,0,0,3.1104,3.1096,3.1146,3.1144,3.1142,3.1097,3.1097,3.1058,3.1053,3.1024,0,3.0998,0,3.1004,3.1005,3.1004,0,0,0,3.115,3.11,3.1099,3.1144,3.1142,3.1097,3.112,3.1055,3.105,3.1017,3.0997,3.0995,3.1002,3.1004,3.1003,3.0821,3.082,0,0,3.1152,3.113,3.1102,3.1094,3.1104,3.1121,3.1118,3.1052,3.1028,3.0997,3.0993,3.1001,3.1003,3.1003,3.0822,3.0821,0,0,0,3.1155,3.1131,3.1133,3.1097,3.1091,3.1119,3.1116,3.1031,3.1033,3.0992,3.1,3.1003,3.1001,3.0823,3.0821,3.0742,0,0,0,3.1157,3.1133,3.1133,3.1119,3.1092,3.1061,3.1095,3.1038,3.1031,3.1,3.1003,3.1,3.0825,3.0822,3.0747,3.0707,0,0,0,3.1153,3.1133,3.1123,3.1118,3.1098,3.1063,3.1062,3.1037,3.1035,3.1004,3.1,3.0826,3.0823,3.0752,3.0714,3.0652,0,0,0,3.1141,3.105,3.1121,3.1023,3.1098,3.1016,3.1062,3.1001,3.0965,3.1002,3.0825,3.0822,3.0753,3.0719,3.0657,3.0595,3.0568,0,0,3.1013,3.1034,3.0978,3.104,3.094,3.1025,3.0911,3.0897,3.0912,3.0849,3.0845,3.0745,3.0715,3.0653,3.0426,3.0404,0,0,0,3.093,3.0889,3.0868,3.0835,3.0825,3.0813,3.082,3.0815,3.0764,3.0877,3.0708,3.069,3.0655,3.0626,3.0607,3.0578,3.0808,3.0808,3.0809,3.0715,3.0744,3.0653,3.0676,3.0644,3.0654,3.0629,3.0623,3.0658,3.0617,3.0598,3.0458,3.0423,3.041,3.0378,3.0569,3.0569,3.0569,3.0569,3.053,3.0476,3.053,3.0461,3.0491,3.0431,3.0437,3.0464,3.0411,3.0474,3.0444,3.0509,3.0385,3.0359,3.0563,3.0564,3.0565,3.0565,3.0566,3.0391,3.037,3.037,3.0327,3.029,3.0316,3.0264,3.0292,3.0318,3.0288,3.0271,3.0272,3.0275,3.0279,3.0278,3.0278,3.0277,3.0277,3.0277,3.0246,3.0248,3.0203,3.0188,3.0172,3.0153,3.0164,3.0147,3.0135,3.0159,3.0159,3.0197,3.0369,3.0411,3.0269,3.027,3.0271,3.0272,3.0273,3.0044,3.0095,3.0026,3.001,2.9995,2.9956,2.9995,2.9958,2.9948,2.9921,2.9967,3.0091,3.0112,3.0126,3.0161,2.9963,2.9963,2.9963,2.9963,2.9925,2.9941,2.9877,2.985,2.9826,2.9855,2.9772,2.9779,2.9794,2.9789,2.9822,2.9871,2.9885,2.9898,2.9917,2.995,2.9703,2.9702,2.9702,2.9802,2.9817,2.9743,2.9763,2.9754,2.9744,2.9667,2.963,2.9657,2.9692,2.9785,2.9796,2.9876,2.9901,2.9934,2.9965,3.0025,0,0]}]]